FW1075 Bellerose NY US current weather conditions

sailwx.info

Wind from 041 at 2 knots gusting 6

Air temperature 11.1° C
Dewpoint 11.0° C

Last reported at 2019-Oct-21 07:01 UTC.
Time now 2019-Oct-21 07:44 UTC

Location: N 40°44' W 073°43'.
View on Google Maps.

See reports from other nearby stations

  
Tides and Currents Weather Stations Pressure Air Temp Water Temp Dewpoint Dewpoint Depression Visibility Wind Speed Wind Dir Waves Ship Positions
date/time (UTC)wind fromknots sea level pressurealtimeterstation pressurevisibilityair tempwater tempwave heightnotes
2019-Oct-21 07:01 041 2 gusting 6 11.1
2019-Oct-21 06:51 350 1 gusting 8 11.1
2019-Oct-21 06:41 042 1 gusting 6 11.1
2019-Oct-21 06:31 066 1 gusting 3 11.1
2019-Oct-21 06:21 056 2 gusting 7 11.1
2019-Oct-21 06:11 071 1 gusting 5 11.1
2019-Oct-21 06:01 056 1 gusting 8 11.1
2019-Oct-21 05:51 055 2 gusting 6 11.7
2019-Oct-21 05:41 027 0 gusting 3 11.7
2019-Oct-21 05:31 093 0 gusting 4 11.7
2019-Oct-21 05:21 056 0 gusting 6 11.7
2019-Oct-21 05:11 068 0 gusting 3 11.7
2019-Oct-21 05:01 070 0 gusting 4 11.7
2019-Oct-21 04:51 073 1 gusting 6 11.7
2019-Oct-21 04:41 053 0 gusting 3 11.7
2019-Oct-21 04:31 042 1 gusting 5 11.7
2019-Oct-21 04:21 052 11.7
2019-Oct-21 04:11 064 0 gusting 4 11.7
2019-Oct-21 04:01 043 11.7
2019-Oct-21 03:51 026 0 gusting 4 11.7
2019-Oct-21 03:41 055 1 gusting 5 11.1
2019-Oct-21 03:31 052 11.1
2019-Oct-21 03:21 088 1 gusting 5 11.1
2019-Oct-21 03:11 074 1 gusting 6 11.1
2019-Oct-21 03:01 093 1 gusting 5 11.1
2019-Oct-21 02:51 092 0 gusting 5 11.1
2019-Oct-21 02:41 351 0 gusting 3 11.1
2019-Oct-21 02:31 086 0 gusting 6 11.1
2019-Oct-21 02:21 066 0 gusting 4 11.1
2019-Oct-21 02:11 020 0 gusting 5 11.1
2019-Oct-21 02:01 056 0 gusting 3 11.1
2019-Oct-21 01:51 084 0 gusting 3 11.1
2019-Oct-21 01:41 080 0 gusting 4 10.6
2019-Oct-21 01:31 065 10.6
2019-Oct-21 01:21 089 0 gusting 4 10.6
2019-Oct-21 01:11 113 10.6
2019-Oct-21 01:01 146 10.6
2019-Oct-21 00:51 039 0 gusting 4 10.6
2019-Oct-21 00:41 090 10.6
2019-Oct-21 00:31 090 10.6
2019-Oct-21 00:21 083 10.6
2019-Oct-21 00:11 106 10.6
2019-Oct-21 00:01 027 0 gusting 6 10.6
2019-Oct-20 23:51 038 0 gusting 4 10.6
2019-Oct-20 23:41 091 0 gusting 4 10.6
2019-Oct-20 23:31 090 1 gusting 6 11.1
2019-Oct-20 23:21 049 11.1
2019-Oct-20 23:11 100 11.7
2019-Oct-20 23:01 113 11.7
2019-Oct-20 22:51 113 11.7
2019-Oct-20 22:41 089 11.7
2019-Oct-20 22:31 090 11.7
2019-Oct-20 22:21 045 11.7
2019-Oct-20 22:11 098 11.7
2019-Oct-20 22:01 019 11.7
2019-Oct-20 21:51 161 12.2
2019-Oct-20 21:41 080 12.8
2019-Oct-20 21:31 093 12.8
2019-Oct-20 21:21 023 13.3
2019-Oct-20 21:11 045 13.3
2019-Oct-20 21:01 113 13.3
2019-Oct-20 20:51 113 13.3
2019-Oct-20 20:41 068 13.9
2019-Oct-20 20:31 084 13.9
2019-Oct-20 20:21 027 13.9
2019-Oct-20 20:11 113 14.4
2019-Oct-20 20:01 113 14.4
2019-Oct-20 19:51 090 14.4
2019-Oct-20 19:41 113 14.4
2019-Oct-20 19:31 090 14.4
2019-Oct-20 19:21 090 15.0
2019-Oct-20 19:11 113 15.0
2019-Oct-20 19:01 113 15.0
2019-Oct-20 18:51 180 15.0
2019-Oct-20 18:41 113 15.6
2019-Oct-20 18:31 113 15.6
2019-Oct-20 18:21 113 15.6
2019-Oct-20 18:11 090 15.6
2019-Oct-20 18:01 113 15.6
2019-Oct-20 17:51 338 15.6
2019-Oct-20 17:41 247 15.6
2019-Oct-20 17:31 113 15.6
2019-Oct-20 17:21 113 15.6
2019-Oct-20 17:11 270 15.6
2019-Oct-20 17:01 090 16.1
2019-Oct-20 16:51 113 16.1
2019-Oct-20 16:41 227 16.1
2019-Oct-20 16:31 113 16.1
2019-Oct-20 16:21 113 16.1
2019-Oct-20 16:11 219 16.1
2019-Oct-20 16:01 158 16.1
2019-Oct-20 15:51 097 16.1
2019-Oct-20 15:41 104 16.1
2019-Oct-20 15:31 139 15.6
2019-Oct-20 15:21 113 15.6
2019-Oct-20 15:11 045 15.0
2019-Oct-20 15:01 113 15.0
2019-Oct-20 14:51 180 15.0
2019-Oct-20 14:41 180 14.4
2019-Oct-20 14:31 113 13.9
2019-Oct-20 14:21 113 13.9
2019-Oct-20 14:11 023 13.3
2019-Oct-20 14:01 113 12.8
2019-Oct-20 13:51 113 12.2
2019-Oct-20 13:41 045 11.7
2019-Oct-20 13:31 068 11.7
2019-Oct-20 13:21 045 11.1
2019-Oct-20 13:11 068 10.6
2019-Oct-20 13:01 023 10.6
2019-Oct-20 12:51 090 10.6
2019-Oct-20 12:41 113 10.6
2019-Oct-20 12:31 113 7.8
2019-Oct-20 12:21 090 7.2
2019-Oct-20 12:11 090 6.7
2019-Oct-20 12:01 113 6.1
2019-Oct-20 11:51 135 6.1
2019-Oct-20 11:41 045 5.6
2019-Oct-20 11:31 045 5.6
2019-Oct-20 11:21 090 5.6
2019-Oct-20 11:11 090 5.6
2019-Oct-20 11:01 090 5.6
2019-Oct-20 10:51 090 5.6
2019-Oct-20 10:41 090 5.6
2019-Oct-20 10:31 090 5.6
2019-Oct-20 10:21 090 5.6
2019-Oct-20 10:11 090 5.6
2019-Oct-20 10:01 090 5.6
2019-Oct-20 09:51 090 5.6
2019-Oct-20 09:41 090 5.6
2019-Oct-20 09:31 090 5.6
2019-Oct-20 09:21 090 5.6
2019-Oct-20 09:11 090 5.6
2019-Oct-20 09:01 113 5.6
2019-Oct-20 08:51 090 5.6
2019-Oct-20 08:41 113 5.6
2019-Oct-20 08:31 113 5.6
2019-Oct-20 08:21 113 6.1
2019-Oct-20 08:11 113 6.1
2019-Oct-20 08:01 113 6.1
2019-Oct-20 07:51 113 6.1
2019-Oct-20 07:41 113 6.1
2019-Oct-20 07:31 113 6.1
2019-Oct-20 07:21 090 6.7
2019-Oct-20 07:11 068 6.7
2019-Oct-20 07:01 113 6.7
2019-Oct-20 06:51 135 6.7
2019-Oct-20 06:41 090 6.7
2019-Oct-20 06:31 068 6.7
2019-Oct-20 06:21 270 7.2
2019-Oct-20 06:11 270 7.2
2019-Oct-20 06:01 270 7.2
2019-Oct-20 05:51 270 7.2
2019-Oct-20 05:41 270 7.2
2019-Oct-20 05:31 113 7.2
2019-Oct-20 05:21 090 7.2
2019-Oct-20 05:11 225 7.2
2019-Oct-20 05:01 045 7.2
2019-Oct-20 04:51 045 7.8
2019-Oct-20 04:41 045 7.8
2019-Oct-20 04:31 045 7.8
2019-Oct-20 04:21 045 7.8
2019-Oct-20 04:11 045 7.8
2019-Oct-20 04:01 135 7.8
2019-Oct-20 03:51 045 7.8
2019-Oct-20 03:41 113 8.3
2019-Oct-20 03:31 113 8.3
2019-Oct-20 03:21 113 8.3
2019-Oct-20 03:11 068 8.3
2019-Oct-20 03:01 113 8.3
2019-Oct-20 02:51 113 8.9
2019-Oct-20 02:41 068 8.9
2019-Oct-20 02:31 158 8.9
2019-Oct-20 02:21 090 8.9
2019-Oct-20 02:11 090 8.9
2019-Oct-20 02:01 090 8.9
2019-Oct-20 01:51 090 8.9
2019-Oct-20 01:41 113 8.9
2019-Oct-20 01:31 113 9.4
2019-Oct-20 01:21 090 9.4
2019-Oct-20 01:11 090 9.4
2019-Oct-20 01:01 090 9.4
2019-Oct-20 00:51 113 10.0
2019-Oct-20 00:41 113 10.0
2019-Oct-20 00:31 113 10.0
2019-Oct-20 00:21 113 10.0
2019-Oct-20 00:11 248 10.6
2019-Oct-20 00:01 090 10.6
2019-Oct-19 23:51 090 10.6
2019-Oct-19 23:41 090 11.1
2019-Oct-19 23:31 180 11.1
2019-Oct-19 23:21 158 11.7
2019-Oct-19 23:11 203 11.7
2019-Oct-19 23:01 113 12.2
2019-Oct-19 22:51 158 12.2
2019-Oct-19 22:41 180 12.2
2019-Oct-19 22:31 203 12.8
2019-Oct-19 22:21 215 12.8
2019-Oct-19 22:11 113 13.3
2019-Oct-19 22:01 151 13.9
2019-Oct-19 21:51 191 14.4
2019-Oct-19 21:41 247 14.4
2019-Oct-19 21:31 263 0 gusting 3 15.0
2019-Oct-19 21:21 273 0 gusting 3 15.6
2019-Oct-19 21:11 283 0 gusting 3 16.1
2019-Oct-19 21:01 028 15.6
2019-Oct-19 20:51 337 0 gusting 4 15.6
2019-Oct-19 20:41 224 0 gusting 4 15.6
2019-Oct-19 20:31 242 0 gusting 5 15.6
2019-Oct-19 20:21 136 16.7
2019-Oct-19 20:11 170 16.1
2019-Oct-19 20:01 338 0 gusting 2 15.6
2019-Oct-19 19:51 172 0 gusting 2 15.6
2019-Oct-19 19:41 045 16.1
2019-Oct-19 19:31 277 2 gusting 4 16.1
2019-Oct-19 19:11 121 15.6
2019-Oct-19 19:01 144 0 gusting 3 15.6
2019-Oct-19 18:51 314 0 gusting 4 15.6
2019-Oct-19 18:41 279 0 gusting 4 16.1
2019-Oct-19 18:31 193 0 gusting 5 15.6
2019-Oct-19 18:21 204 0 gusting 4 15.6
2019-Oct-19 18:11 262 1 gusting 6 15.6
2019-Oct-19 18:01 249 0 gusting 5 15.6
2019-Oct-19 17:51 211 0 gusting 4 15.6
2019-Oct-19 17:41 158 15.0
2019-Oct-19 17:31 202 15.6
2019-Oct-19 17:21 216 0 gusting 3 15.0
2019-Oct-19 17:11 119 0 gusting 4 15.0
2019-Oct-19 17:01 338 14.4
2019-Oct-19 16:51 153 1 gusting 2 14.4
2019-Oct-19 16:41 110 0 gusting 2 14.4
2019-Oct-19 16:31 355 0 gusting 6 14.4
2019-Oct-19 16:21 280 0 gusting 4 13.9
2019-Oct-19 16:11 208 0 gusting 6 14.4
2019-Oct-19 16:01 189 0 gusting 5 13.9
2019-Oct-19 15:51 190 14.4
2019-Oct-19 15:41 181 0 gusting 4 13.9
2019-Oct-19 15:31 200 13.9
2019-Oct-19 15:21 218 0 gusting 4 13.9
2019-Oct-19 15:11 225 13.9
2019-Oct-19 15:01 221 12.8
2019-Oct-19 14:51 270 13.3
2019-Oct-19 14:41 360 12.8
2019-Oct-19 14:31 224 12.8
2019-Oct-19 14:21 204 12.2
2019-Oct-19 14:11 158 11.7
2019-Oct-19 14:01 060 11.7
2019-Oct-19 13:51 247 11.7
2019-Oct-19 13:41 203 11.1
2019-Oct-19 13:31 263 10.6
2019-Oct-19 13:21 192 10.6
2019-Oct-19 13:11 225 10.0
2019-Oct-19 13:01 203 10.0
2019-Oct-19 12:51 338 9.4
2019-Oct-19 12:41 180 9.4
2019-Oct-19 12:31 270 5.0
2019-Oct-19 12:21 270 4.4
2019-Oct-19 12:11 113 3.9
2019-Oct-19 12:01 113 3.9
2019-Oct-19 11:51 113 3.3
2019-Oct-19 11:41 203 3.3
2019-Oct-19 11:31 225 3.3
2019-Oct-19 11:21 225 3.3
2019-Oct-19 11:11 225 3.3
2019-Oct-19 11:01 203 3.3
2019-Oct-19 10:51 180 3.3
2019-Oct-19 10:41 203 3.3
2019-Oct-19 10:31 225 3.3
2019-Oct-19 10:21 225 3.3
2019-Oct-19 10:11 225 3.3
2019-Oct-19 10:01 248 3.3
2019-Oct-19 09:51 248 3.3
2019-Oct-19 09:41 248 3.3
2019-Oct-19 09:31 225 3.9
2019-Oct-19 09:21 225 3.9
2019-Oct-19 09:11 135 3.9
2019-Oct-19 09:01 158 3.9
2019-Oct-19 08:51 135 3.9
2019-Oct-19 08:41 135 3.9
2019-Oct-19 08:31 225 3.9
2019-Oct-19 08:21 203 4.4
2019-Oct-19 08:11 225 4.4
2019-Oct-19 08:01 180 4.4
2019-Oct-19 07:51 135 5.0
2019-Oct-19 07:41 113 5.0
2019-Oct-19 07:31 113 5.0
2019-Oct-19 07:21 225 5.0
2019-Oct-19 07:11 180 5.6
2019-Oct-19 07:01 270 5.6